| time (UTC) | temp F | wind direction | speed MPH | gust MPH | rain 1hr in | rain 24hr in | rain mn in | humidity % | barometer mb |
| 20260902194514 | 96 | 113 | 2.0 | 4.0 | 0.00 | 0.00 | 0.00 | 45 | 1015.6 |
| 20260902193534 | 97 | 158 | 1.0 | 3.0 | 0.00 | 0.00 | 0.00 | 45 | 1015.8 |
| 20260902192514 | 97 | 293 | 1.0 | 5.0 | 0.00 | 0.00 | 0.00 | 45 | 1015.8 |
| 20260902191514 | 97 | 203 | 3.0 | 8.0 | 0.00 | 0.00 | 0.00 | 44 | 1016.1 |
| 20260902190514 | 97 | 293 | 2.0 | 5.0 | 0.00 | 0.00 | 0.00 | 44 | 1016.1 |
| 20260902185514 | 97 | 203 | 3.0 | 10.0 | 0.00 | 0.00 | 0.00 | 45 | 1016.3 |
| 20260902184514 | 97 | 180 | 4.0 | 10.0 | 0.00 | 0.00 | 0.00 | 45 | 1016.3 |
| 20260902183514 | 97 | 180 | 3.0 | 9.0 | 0.00 | 0.00 | 0.00 | 45 | 1016.5 |
| 20260902182514 | 96 | 180 | 4.0 | 10.0 | 0.00 | 0.00 | 0.00 | 46 | 1016.4 |
| 20260902181514 | 96 | 158 | 2.0 | 5.0 | 0.00 | 0.00 | 0.00 | 46 | 1016.6 |
| 20260902180514 | 96 | 248 | 1.0 | 7.0 | 0.00 | 0.00 | 0.00 | 46 | 1016.7 |
| 20260902175514 | 97 | 203 | 3.0 | 7.0 | 0.00 | 0.00 | 0.00 | 46 | 1016.9 |
| 20260902174514 | 97 | 180 | 2.0 | 7.0 | 0.00 | 0.00 | 0.00 | 46 | 1016.9 |
| 20260902173514 | 96 | 225 | 3.0 | 6.0 | 0.00 | 0.00 | 0.00 | 46 | 1017.1 |
| 20260902172514 | 96 | 135 | 3.0 | 7.0 | 0.00 | 0.00 | 0.00 | 47 | 1017.2 |
| 20260902171513 | 95 | 180 | 3.0 | 8.0 | 0.00 | 0.00 | 0.00 | 47 | 1017.3 |
| 20260902170514 | 95 | 225 | 3.0 | 6.0 | 0.00 | 0.00 | 0.00 | 48 | 1017.4 |
| 20260902165514 | 94 | 203 | 3.0 | 8.0 | 0.00 | 0.00 | 0.00 | 48 | 1017.5 |
| 20260902164514 | 94 | 180 | 4.0 | 8.0 | 0.00 | 0.00 | 0.00 | 48 | 1017.5 |
| 20260902163516 | 93 | 225 | 2.0 | 5.0 | 0.00 | 0.00 | 0.00 | 52 | 1017.6 |
| 20260902162516 | 93 | 248 | 2.0 | 6.0 | 0.00 | 0.00 | 0.00 | 51 | 1017.7 |
| 20260902161516 | 93 | 113 | 2.0 | 6.0 | 0.00 | 0.00 | 0.00 | 54 | 1017.9 |
| 20260902160516 | 92 | 180 | 3.0 | 7.0 | 0.00 | 0.00 | 0.00 | 53 | 1017.8 |
| 20260902155515 | 92 | 180 | 4.0 | 10.0 | 0.00 | 0.00 | 0.00 | 53 | 1018.0 |
| 20260902154515 | 92 | 180 | 3.0 | 7.0 | 0.00 | 0.00 | 0.00 | 54 | 1018.0 |
| 20260902153514 | 92 | 180 | 4.0 | 7.0 | 0.00 | 0.00 | 0.00 | 55 | 1018.0 |
| 20260902152515 | 91 | 225 | 3.0 | 6.0 | 0.00 | 0.00 | 0.00 | 56 | 1017.9 |
| 20260902151516 | 90 | 180 | 3.0 | 9.0 | 0.00 | 0.00 | 0.00 | 57 | 1017.9 |
| 20260902150516 | 90 | 158 | 3.0 | 6.0 | 0.00 | 0.00 | 0.00 | 58 | 1017.9 |
| 20260902145516 | 89 | 203 | 3.0 | 6.0 | 0.00 | 0.00 | 0.00 | 59 | 1017.9 |
| 20260902144536 | 88 | 180 | 3.0 | 5.0 | 0.00 | 0.00 | 0.00 | 61 | 1017.9 |
| 20260902143515 | 88 | 180 | 2.0 | 5.0 | 0.00 | 0.00 | 0.00 | 63 | 1017.8 |
| 20260902142515 | 86 | 158 | 2.0 | 6.0 | 0.00 | 0.00 | 0.00 | 68 | 1017.8 |
| 20260902141515 | 85 | 158 | 2.0 | 4.0 | 0.00 | 0.00 | 0.00 | 70 | 1017.8 |
| 20260902140515 | 85 | 135 | 2.0 | 3.0 | 0.00 | 0.00 | 0.00 | 71 | 1017.9 |
| 20260902135536 | 84 | 158 | 1.0 | 3.0 | 0.00 | 0.00 | 0.00 | 73 | 1018.1 |
| 20260902134516 | 83 | 135 | 1.0 | 2.0 | 0.00 | 0.00 | 0.00 | 74 | 1018.1 |
| 20260902133515 | 82 | 135 | 2.0 | 3.0 | 0.00 | 0.00 | 0.00 | 75 | 1018.2 |
| 20260902132515 | 81 | 135 | 2.0 | 3.0 | 0.00 | 0.00 | 0.00 | 76 | 1018.2 |
| 20260902131516 | 80 | 135 | 2.0 | 4.0 | 0.00 | 0.00 | 0.00 | 78 | 1018.2 |
| 20260902130515 | 79 | 135 | 2.0 | 5.0 | 0.00 | 0.00 | 0.00 | 79 | 1018.1 |
| 20260902125515 | 79 | 158 | 2.0 | 3.0 | 0.00 | 0.00 | 0.00 | 81 | 1018.1 |
| 20260902124515 | 78 | 158 | 1.0 | 3.0 | 0.00 | 0.00 | 0.00 | 82 | 1018.0 |
| 20260902123515 | 77 | 135 | 2.0 | 3.0 | 0.00 | 0.00 | 0.00 | 84 | 1017.9 |
| 20260902122516 | 76 | 0.0 | 1.0 | 0.00 | 0.00 | 0.00 | 86 | 1017.8 | |
| 20260902121515 | 75 | 0.0 | 0.0 | 0.00 | 0.00 | 0.00 | 87 | 1017.9 | |
| 20260902120535 | 75 | 0.0 | 0.0 | 0.00 | 0.00 | 0.00 | 87 | 1017.7 | |
| 20260902115515 | 75 | 0.0 | 0.0 | 0.00 | 0.00 | 0.00 | 87 | 1017.6 | |
| 20260902114535 | 75 | 0.0 | 0.0 | 0.00 | 0.00 | 0.00 | 87 | 1017.5 | |
| 20260902113515 | 75 | 0.0 | 0.0 | 0.00 | 0.00 | 0.00 | 87 | 1017.4 | |
| 20260902112515 | 75 | 0.0 | 0.0 | 0.00 | 0.00 | 0.00 | 86 | 1017.3 | |
| 20260902111515 | 75 | 0.0 | 0.0 | 0.00 | 0.00 | 0.00 | 87 | 1017.3 | |
| 20260902110515 | 75 | 0.0 | 0.0 | 0.00 | 0.00 | 0.00 | 87 | 1017.2 | |
| 20260902105515 | 76 | 0.0 | 0.0 | 0.00 | 0.00 | 0.00 | 86 | 1017.2 | |
| 20260902104515 | 76 | 0.0 | 0.0 | 0.00 | 0.00 | 0.00 | 85 | 1017.2 | |
| 20260902103515 | 76 | 0.0 | 0.0 | 0.00 | 0.00 | 0.00 | 85 | 1017.3 | |
| 20260902102515 | 77 | 0.0 | 0.0 | 0.00 | 0.00 | 0.00 | 85 | 1017.2 | |
| 20260902101515 | 77 | 0.0 | 0.0 | 0.00 | 0.00 | 0.00 | 85 | 1017.1 | |
| 20260902100515 | 77 | 0.0 | 0.0 | 0.00 | 0.00 | 0.00 | 85 | 1017.1 | |
| 20260902095515 | 76 | 0.0 | 0.0 | 0.00 | 0.00 | 0.00 | 85 | 1017.0 | |
| 20260902094515 | 76 | 0.0 | 0.0 | 0.00 | 0.00 | 0.00 | 85 | 1017.0 | |
| 20260902093515 | 76 | 0.0 | 0.0 | 0.00 | 0.00 | 0.00 | 85 | 1016.9 | |
| 20260902092515 | 77 | 0.0 | 0.0 | 0.00 | 0.00 | 0.00 | 86 | 1016.9 | |
| 20260902091515 | 77 | 0.0 | 0.0 | 0.00 | 0.00 | 0.00 | 86 | 1016.9 | |
| 20260902090515 | 76 | 0.0 | 0.0 | 0.00 | 0.00 | 0.00 | 86 | 1016.8 | |
| 20260902085515 | 76 | 0.0 | 0.0 | 0.00 | 0.00 | 0.00 | 86 | 1016.8 | |
| 20260902084515 | 77 | 0.0 | 0.0 | 0.00 | 0.00 | 0.00 | 86 | 1016.7 | |
| 20260902083515 | 77 | 0.0 | 0.0 | 0.00 | 0.00 | 0.00 | 86 | 1016.7 | |
| 20260902082515 | 77 | 0.0 | 0.0 | 0.00 | 0.00 | 0.00 | 85 | 1016.8 | |
| 20260902081515 | 77 | 0.0 | 0.0 | 0.00 | 0.00 | 0.00 | 85 | 1016.7 | |
| 20260902080515 | 77 | 0.0 | 0.0 | 0.00 | 0.00 | 0.00 | 84 | 1016.7 | |
| 20260902075515 | 78 | 0.0 | 0.0 | 0.00 | 0.00 | 0.00 | 83 | 1016.7 | |
| 20260902074515 | 78 | 0.0 | 0.0 | 0.00 | 0.00 | 0.00 | 83 | 1016.8 | |
| 20260902073515 | 78 | 0.0 | 0.0 | 0.00 | 0.00 | 0.00 | 83 | 1016.8 | |
| 20260902072535 | 78 | 0.0 | 0.0 | 0.00 | 0.00 | 0.00 | 83 | 1016.8 | |
| 20260902071515 | 78 | 0.0 | 0.0 | 0.00 | 0.00 | 0.00 | 83 | 1016.9 | |
| 20260902070535 | 78 | 0.0 | 0.0 | 0.00 | 0.00 | 0.00 | 83 | 1016.8 | |
| 20260902065535 | 78 | 0.0 | 2.0 | 0.00 | 0.00 | 0.00 | 83 | 1016.8 | |
| 20260902064515 | 78 | 0.0 | 0.0 | 0.00 | 0.00 | 0.00 | 82 | 1016.9 | |
| 20260902063515 | 79 | 0.0 | 0.0 | 0.00 | 0.00 | 0.00 | 81 | 1016.9 | |
| 20260902062514 | 79 | 0.0 | 0.0 | 0.00 | 0.00 | 0.00 | 80 | 1016.9 | |
| 20260902061514 | 79 | 0.0 | 0.0 | 0.00 | 0.00 | 0.00 | 80 | 1016.9 | |
| 20260902060514 | 79 | 0.0 | 1.0 | 0.00 | 0.00 | 0.00 | 79 | 1016.9 | |
| 20260902055514 | 80 | 0.0 | 1.0 | 0.00 | 0.00 | 0.00 | 78 | 1016.8 | |
| 20260902054514 | 80 | 0.0 | 0.0 | 0.00 | 0.00 | 0.00 | 78 | 1016.8 | |
| 20260902053615 | 80 | 0.0 | 2.0 | 0.00 | 0.00 | 0.00 | 78 | 1016.8 | |
| 20260902052514 | 80 | 0.0 | 0.0 | 0.00 | 0.00 | 0.00 | 77 | 1016.8 | |
| 20260902051514 | 80 | 0.0 | 1.0 | 0.00 | 0.00 | 0.00 | 77 | 1016.8 | |
| 20260902050514 | 80 | 135 | 1.0 | 2.0 | 0.00 | 0.00 | 0.00 | 76 | 1016.7 |
| 20260902045515 | 81 | 0.0 | 1.0 | 0.00 | 0.00 | 0.00 | 76 | 1016.7 | |
| 20260902044515 | 81 | 0.0 | 2.0 | 0.00 | 0.00 | 0.00 | 76 | 1016.5 | |
| 20260902043515 | 81 | 135 | 1.0 | 2.0 | 0.00 | 0.00 | 0.00 | 75 | 1016.6 |
| 20260902042515 | 81 | 0.0 | 0.0 | 0.00 | 0.00 | 0.00 | 74 | 1016.6 | |
| 20260902041515 | 82 | 0.0 | 2.0 | 0.00 | 0.00 | 0.00 | 73 | 1016.6 | |
| 20260902040515 | 82 | 0.0 | 1.0 | 0.00 | 0.00 | 0.00 | 73 | 1016.5 | |
| 20260902035515 | 82 | 0.0 | 1.0 | 0.00 | 0.00 | 0.00 | 72 | 1016.6 | |
| 20260902034515 | 82 | 0.0 | 2.0 | 0.00 | 0.00 | 0.00 | 71 | 1016.5 | |
| 20260902033515 | 83 | 0.0 | 2.0 | 0.00 | 0.00 | 0.00 | 70 | 1016.5 | |
| 20260902032515 | 83 | 0.0 | 0.0 | 0.00 | 0.00 | 0.00 | 69 | 1016.6 | |
| 20260902031535 | 83 | 0.0 | 2.0 | 0.00 | 0.00 | 0.00 | 68 | 1016.6 | |
| 20260902030515 | 83 | 0.0 | 2.0 | 0.00 | 0.00 | 0.00 | 67 | 1016.4 | |
| 20260902025515 | 84 | 135 | 1.0 | 3.0 | 0.00 | 0.00 | 0.00 | 67 | 1016.4 |
| 20260902024515 | 84 | 135 | 1.0 | 3.0 | 0.00 | 0.00 | 0.00 | 66 | 1016.3 |
| 20260902023515 | 84 | 135 | 1.0 | 2.0 | 0.00 | 0.00 | 0.00 | 65 | 1016.3 |
| 20260902022515 | 85 | 0.0 | 2.0 | 0.00 | 0.00 | 0.00 | 64 | 1016.2 | |
| 20260902021515 | 85 | 135 | 1.0 | 3.0 | 0.00 | 0.00 | 0.00 | 63 | 1016.1 |
| 20260902020515 | 86 | 0.0 | 2.0 | 0.00 | 0.00 | 0.00 | 62 | 1016.0 | |
| 20260902015515 | 86 | 135 | 1.0 | 3.0 | 0.00 | 0.00 | 0.00 | 62 | 1016.0 |
| 20260902014515 | 87 | 135 | 1.0 | 2.0 | 0.00 | 0.00 | 0.00 | 61 | 1015.7 |
| 20260902013515 | 87 | 0.0 | 2.0 | 0.00 | 0.00 | 0.00 | 61 | 1015.7 | |
| 20260902012535 | 88 | 135 | 1.0 | 3.0 | 0.00 | 0.00 | 0.00 | 60 | 1015.5 |
| 20260902011514 | 88 | 135 | 2.0 | 3.0 | 0.00 | 0.00 | 0.00 | 58 | 1015.5 |
| 20260902010515 | 89 | 135 | 2.0 | 3.0 | 0.00 | 0.00 | 0.00 | 57 | 1015.4 |
| 20260902005514 | 90 | 113 | 2.0 | 5.0 | 0.00 | 0.00 | 0.00 | 56 | 1015.3 |
| 20260902004517 | 90 | 180 | 2.0 | 5.0 | 0.00 | 0.00 | 0.00 | 55 | 1015.2 |
| 20260902003515 | 91 | 135 | 2.0 | 4.0 | 0.00 | 0.00 | 0.00 | 54 | 1015.2 |
| 20260902002515 | 91 | 158 | 2.0 | 5.0 | 0.00 | 0.00 | 0.00 | 53 | 1015.3 |
| 20260902001515 | 92 | 113 | 3.0 | 8.0 | 0.00 | 0.00 | 0.00 | 52 | 1015.3 |
| 20260902000515 | 92 | 113 | 2.0 | 3.0 | 0.00 | 0.00 | 0.00 | 51 | 1015.2 |
| 20260901235514 | 93 | 135 | 4.0 | 8.0 | 0.00 | 0.00 | 0.00 | 50 | 1015.3 |
| 20260901234535 | 93 | 135 | 3.0 | 6.0 | 0.00 | 0.00 | 0.00 | 49 | 1015.5 |
| 20260901233514 | 94 | 113 | 3.0 | 7.0 | 0.00 | 0.00 | 0.00 | 48 | 1015.5 |
| 20260901232554 | 94 | 135 | 3.0 | 6.0 | 0.00 | 0.00 | 0.00 | 47 | 1015.5 |
| 20260901231515 | 94 | 113 | 3.0 | 6.0 | 0.00 | 0.00 | 0.00 | 47 | 1015.5 |
| 20260901230515 | 95 | 158 | 3.0 | 5.0 | 0.00 | 0.00 | 0.00 | 46 | 1015.4 |
| 20260901225515 | 96 | 158 | 4.0 | 9.0 | 0.00 | 0.00 | 0.00 | 45 | 1015.5 |
| 20260901224515 | 96 | 113 | 4.0 | 12.0 | 0.00 | 0.00 | 0.00 | 44 | 1015.4 |
| 20260901223514 | 97 | 135 | 4.0 | 7.0 | 0.00 | 0.00 | 0.00 | 43 | 1015.5 |
| 20260901222514 | 97 | 113 | 3.0 | 6.0 | 0.00 | 0.00 | 0.00 | 42 | 1015.4 |
| 20260901221514 | 96 | 113 | 4.0 | 9.0 | 0.00 | 0.00 | 0.00 | 43 | 1015.4 |
| 20260901220514 | 96 | 135 | 3.0 | 8.0 | 0.00 | 0.00 | 0.00 | 43 | 1015.4 |
| 20260901215514 | 97 | 158 | 1.0 | 4.0 | 0.00 | 0.00 | 0.00 | 43 | 1015.3 |
| 20260901214514 | 97 | 135 | 2.0 | 5.0 | 0.00 | 0.00 | 0.00 | 40 | 1015.4 |
| 20260901213515 | 98 | 158 | 3.0 | 10.0 | 0.00 | 0.00 | 0.00 | 38 | 1015.3 |
| 20260901212534 | 98 | 180 | 3.0 | 7.0 | 0.00 | 0.00 | 0.00 | 38 | 1015.3 |
| 20260901211514 | 98 | 180 | 3.0 | 7.0 | 0.00 | 0.00 | 0.00 | 38 | 1015.3 |
| 20260901210514 | 98 | 158 | 4.0 | 10.0 | 0.00 | 0.00 | 0.00 | 38 | 1015.6 |
| 20260901205534 | 99 | 158 | 4.0 | 8.0 | 0.00 | 0.00 | 0.00 | 38 | 1015.7 |
| 20260901204514 | 99 | 90 | 3.0 | 7.0 | 0.00 | 0.00 | 0.00 | 37 | 1015.8 |
| 20260901203514 | 98 | 135 | 2.0 | 5.0 | 0.00 | 0.00 | 0.00 | 38 | 1015.9 |
| 20260901202514 | 99 | 113 | 1.0 | 4.0 | 0.00 | 0.00 | 0.00 | 40 | 1016.0 |
| 20260901200514 | 98 | 113 | 4.0 | 10.0 | 0.00 | 0.00 | 0.00 | 39 | 1016.2 |
| 20260901195514 | 98 | 225 | 3.0 | 10.0 | 0.00 | 0.00 | 0.00 | 40 | 1016.3 |